User: anonymous   Login
Location: Unspecified
(0.0000°N, 0.0000°E)
Time: 10:26:21
(UTC+00:00)
Language:

NOAA 9 - Orbit

View from above orbital plane
View from above orbital plane
View from above satellite
View from above satellite

Ground track
Ground track

The orbit data is extracted from the following two-line orbital elements,

1 15427U 84123A   20219.48854271 -.00000006 +00000-0 +19947-4 0  9991
2 15427 098.9445 173.9989 0013906 297.7360 168.7285 14.16103021840377
Epoch (UTC): 06 August 2020 11:43:30
Eccentricity: 0.0013906
inclination: 98.9445°
perigee height: 828 km
apogee height: 848 km
right ascension of ascending node: 173.9989°
argument of perigee: 297.7360°
revolutions per day: 14.16103021
mean anomaly at epoch: 168.7285°
orbit number at epoch: 84037

The dashed part of the orbit path shows where the satellite is in the earth's shadow,  

DLR